Tracking 23583 objects as of 26-Jul-2021
HD Live streaming from Space Station
objects crossing your sky now

MEZNSAT

Track MEZNSAT now!
10-day predictions
MEZNSAT is classified as:


NORAD ID: 46489
Int'l Code: 2020-068D
Perigee: 549.0 km
Apogee: 574.2 km
Inclination: 97.7 °
Period: 95.7 minutes
Semi major axis: 6932 km
RCS: Unknown
Launch date: September 28, 2020
Source: (UNK)
Launch site: PLESETSK MISSILE AND SPACE COMPLEX (PKMTR)

Uplink (MHz):
Downlink (MHz): 436.600
Beacon (MHz):
Mode: 1k2/2k4 BPSK
Call sign: A68MZ
Status: Active

aabbcc
Your satellite tracking list
Your tracking list is empty




NASA's NSSDC Master Catalog

Two Line Element Set (TLE):
1 46489U 20068D   21206.78295328  .00001289  00000-0  97431-4 0  9990
2 46489  97.6930 144.2417 0018123 307.2988  82.8396 15.04036972 45127
Source of the keplerian elements: AFSPC